User: anonymous   Login
Location: Unspecified
(0.0000°N, 0.0000°E)
Time: 07:40:26
(UTC+00:00)
Language:

AEROCUBE 6A - Orbit

View from above orbital plane
View from above orbital plane
View from above satellite
View from above satellite

Ground track
Ground track

The orbit data is extracted from the following two-line orbital elements,

1 40045U 14033AM  17289.64447181 +.00000528 +00000-0 +84353-4 0  9998
2 40045 097.8518 171.8507 0056847 258.7435 100.7382 14.74938142178387
Epoch (UTC): 16 October 2017 15:28:02
Eccentricity: 0.0056847
inclination: 97.8518°
perigee height: 605 km
apogee height: 685 km
right ascension of ascending node: 171.8507°
argument of perigee: 258.7435°
revolutions per day: 14.74938142
mean anomaly at epoch: 100.7382°
orbit number at epoch: 17838

The dashed part of the orbit path shows where the satellite is in the earth's shadow,  

DLR